Location: Unspecified
(52.4292°N, 19.3359°E)
Time: 23:03:06
(UTC+02:00)

A-11 Canister half - Pass Details

Date: 27 May 2024
Orbit: 1524 x 1683 km, 47.3° (Epoch: 19 June)

Event Time Altitude Azimuth Distance (km) Brightness Sun altitude
Rises 01:27:29 0° 279° (W) 4,735 11.5 -15.5°
Reaches altitude 10° 01:30:36 10° 275° (W) 3,769 11.0 -15.4°
Maximum altitude 01:39:45 52° 203° (SSW) 1,924 9.1 -15.1°
Drops below altitude 10° 01:49:11 10° 130° (SE) 3,882 10.9 -14.7°
Sets 01:52:28 0° 126° (SE) 4,886 11.4 -14.5°
